Dewpoint
62 62 61 61 61 62 62 62 62 62 61 60 60 59 58 57 57 55 56 57 57 58 59 58 59 58 61 61 61 61 61 60 60 60 59 59 58 56 55 56 57 57 54 53 53 54 57 57 55 56 57 58 58 57 56 55 55 56 59 58 57 54 54 54 54 54 52 50 49 49 50 49 50 50
62 62 62 62 62 62 62 62 62 62 61 61 60 60 60 59 57 57 56 56 57 57 57 57 56 59 61 61 61 61 61 58 60 60 59 59 58 55 55 55 56 55 53 51 51 54 55 55 56 57 57 58 57 56 55 55 56 58 57 57 57 55 55 55 55 52 50 49 50 50 49 50 50 50
62 62 62 62 62 62 62 62 62 61 61 61 61 61 60 59 58 57 56 54 55 57 56 56 57 59 60 61 61 61 61 59 60 60 59 59 56 55 55 54 54 54 53 52 53 57 56 54 54 56 57 58 57 56 57 58 58 57 57 55 54 56 56 55 54 51 47 47 48 49 49 50 49 49
62 62 61 62 62 62 62 62 61 60 61 61 61 60 60 59 59 58 56 55 55 56 56 55 58 59 60 60 60 60 60 60 58 60 59 58 56 56 56 54 54 53 53 53 57 60 57 55 56 57 57 58 57 57 58 58 57 57 54 53 54 55 55 55 54 52 49 48 49 49 49 48 48 47
62 61 61 61 62 62 62 62 61 61 61 61 61 59 59 58 58 58 56 55 55 55 56 56 58 59 60 60 60 60 60 60 60 58 58 57 56 57 56 55 52 52 52 52 54 54 53 55 58 57 57 57 57 56 56 55 53 55 53 51 52 52 54 54 53 53 51 50 50 51 49 49 48 47
61 61 61 61 62 62 62 61 62 62 61 61 60 60 60 59 59 59 57 56 56 55 54 56 58 59 59 59 60 59 59 59 59 58 57 56 56 55 54 54 53 51 52 52 52 52 52 53 55 53 52 52 53 53 52 52 52 53 50 48 50 53 55 55 53 52 52 51 51 51 52 51 50 48
61 61 60 61 62 62 61 61 62 62 61 61 60 60 60 60 59 60 60 57 56 55 54 56 57 58 58 58 59 59 60 59 59 58 57 56 56 55 54 54 54 50 50 51 51 51 52 52 52 52 51 51 51 50 51 51 50 50 48 47 50 51 52 52 51 51 54 52 52 52 52 51 51 50
61 61 60 60 60 61 61 61 61 61 61 61 60 60 59 60 59 59 59 59 57 55 54 54 56 57 56 56 58 59 59 58 57 58 57 57 56 55 54 54 54 51 50 50 51 51 52 52 51 51 51 51 50 50 50 50 50 48 48 48 49 49 49 49 48 48 50 54 52 52 52 52 52 51
62 61 60 60 60 60 60 60 60 60 60 60 60 59 60 60 59 59 59 59 58 57 55 54 55 56 55 56 57 58 58 57 56 57 57 57 56 55 54 54 54 50 50 50 51 50 51 51 51 51 50 50 50 49 50 49 49 48 48 48 48 48 48 48 48 47 47 47 48 52 52 52 52 51
62 62 61 61 61 60 60 60 60 60 59 60 59 59 59 59 59 59 59 58 58 58 56 55 52 55 52 52 55 57 58 57 55 55 55 55 55 55 54 54 54 52 52 52 52 50 50 51 51 50 50 50 49 49 49 49 49 48 47 47 47 47 47 47 46 46 46 46 45 45 47 48 52 52
60 61 61 60 61 60 60 59 59 59 59 59 59 59 59 59 59 58 58 58 58 57 56 55 53 52 51 53 52 54 57 56 54 53 53 52 49 54 54 53 54 53 52 51 51 50 50 51 51 50 50 49 49 49 48 48 48 47 47 46 46 46 46 46 46 46 45 45 44 44 44 46 49 51
60 60 60 60 60 59 60 60 60 60 59 59 58 58 59 59 58 57 57 57 57 57 56 55 53 50 49 50 49 51 53 51 48 51 51 51 46 50 52 53 53 52 52 51 52 51 51 50 49 49 49 48 48 48 48 49 49 48 46 46 45 46 46 46 46 45 45 45 45 44 43 43 43 49
60 60 60 59 60 61 60 58 58 58 58 59 58 58 59 58 58 57 57 57 57 56 55 54 51 48 47 47 46 47 49 50 50 49 47 49 45 48 49 49 50 53 52 52 52 52 51 51 50 51 50 50 48 49 49 49 49 47 45 45 45 45 44 45 45 45 45 45 45 44 44 43 43 43
60 60 60 60 61 59 58 55 53 53 53 55 58 59 59 58 58 57 57 57 57 56 54 53 51 48 47 45 44 46 47 48 45 44 43 43 41 46 46 44 44 50 52 51 51 51 52 51 51 51 50 51 50 49 48 47 46 45 44 44 44 44 44 44 44 44 44 44 44 44 44 43 43 42
59 58 58 57 59 58 57 55 50 50 50 50 52 53 55 56 58 57 56 56 56 55 54 53 50 48 49 46 43 44 45 44 40 43 41 42 43 43 43 43 45 45 50 48 47 48 49 51 50 49 50 50 48 46 45 45 45 44 43 43 43 43 43 43 43 43 44 44 44 43 43 43 44 43
57 57 57 57 58 57 57 54 52 52 49 48 46 46 49 52 53 51 55 56 56 55 54 52 52 48 47 44 42 42 42 41 39 39 39 40 42 42 42 42 43 44 47 45 47 46 47 47 47 46 46 46 45 44 44 44 43 43 44 43 43 43 43 43 43 43 43 43 43 42 43 43 42 41
57 57 57 56 56 56 57 57 54 53 51 45 44 44 45 45 44 41 42 46 55 55 54 53 52 51 47 44 42 43 43 42 39 39 39 41 41 41 41 43 48 45 46 47 47 45 46 45 45 44 45 44 44 44 44 43 43 43 43 43 43 43 42 43 42 42 42 42 42 42 42 41 41 41
51 56 57 55 54 55 55 55 55 55 54 53 52 52 52 52 50 47 46 44 48 53 56 54 52 52 53 46 47 51 48 42 39 41 40 43 44 45 47 49 50 48 48 46 47 45 46 46 45 44 45 46 45 44 44 43 43 43 42 42 42 42 42 42 42 42 42 42 42 41 41 41 40 40
48 49 52 55 55 55 54 53 53 54 53 52 50 50 48 47 47 47 48 51 52 52 51 51 51 50 51 51 52 55 54 46 43 42 43 45 49 52 51 51 51 51 51 50 48 44 45 45 44 44 45 45 45 44 43 43 42 42 42 42 42 42 42 42 41 41 42 41 41 40 40 39 39 39
47 48 49 50 51 52 51 47 44 48 52 51 49 48 48 47 46 44 43 41 44 47 48 48 48 46 45 42 46 52 55 55 54 53 53 52 52 52 52 50 47 48 46 47 48 45 45 45 44 44 45 43 43 44 43 42 42 42 41 41 41 41 41 41 41 41 41 41 40 40 39 39 39 38
45 46 47 48 48 48 47 44 43 44 48 50 49 48 47 47 46 46 45 42 40 40 40 40 40 40 40 40 40 41 46 53 54 54 52 51 52 51 49 46 46 45 43 44 49 47 45 46 44 43 44 44 43 43 43 43 42 42 41 41 41 41 41 41 41 40 40 40 40 40 39 39 39 39
45 45 45 47 45 45 44 41 43 45 49 50 50 49 48 48 48 48 48 47 45 41 41 41 40 41 41 41 41 41 41 41 45 54 52 52 52 50 49 48 46 43 42 43 49 46 45 45 43 42 43 42 43 43 43 42 42 42 41 41 41 41 40 40 40 40 40 40 40 40 39 39 38 37
44 44 44 43 42 42 41 39 40 43 49 52 51 50 50 49 48 49 48 45 45 46 46 46 45 45 45 46 45 46 41 42 45 47 50 52 52 50 48 45 42 40 40 43 47 46 45 43 43 41 41 41 44 44 43 43 42 42 42 41 40 40 40 40 40 40 40 40 40 40 39 39 38 37
43 43 43 42 38 38 39 39 39 40 42 47 48 50 49 48 47 48 47 46 45 43 44 44 44 44 44 45 45 44 43 46 46 45 45 47 51 50 48 44 44 44 43 42 45 47 46 45 43 42 41 39 39 43 44 43 43 42 41 41 40 40 41 40 39 40 40 40 39 39 39 39 39 37
41 42 42 42 39 38 38 38 39 39 40 42 45 45 45 45 46 44 45 44 43 44 44 44 44 42 43 44 44 44 44 43 42 43 42 44 46 47 45 44 43 43 43 43 43 48 45 45 44 45 44 44 43 42 43 41 42 41 41 41 39 39 39 38 39 37 39 39 38 39 39 39 39 38
41 41 42 41 39 38 38 38 38 39 39 40 45 43 40 40 41 46 46 45 44 44 43 43 44 44 44 42 42 43 43 43 44 43 40 41 42 42 42 43 43 43 41 45 43 49 47 45 45 44 43 42 42 41 40 40 41 42 42 41 40 39 40 39 38 37 35 35 35 36 37 39 39 40
40 41 42 42 40 38 38 38 38 38 39 40 40 38 39 40 41 43 46 44 45 44 44 43 43 43 43 42 42 41 41 42 42 41 41 41 41 41 41 42 42 43 45 46 48 48 48 46 46 44 42 40 40 39 39 39 39 40 40 40 40 40 40 39 39 38 37 38 38 39 38 38 38 38
40 40 41 40 38 38 38 38 38 38 39 40 38 39 39 40 41 45 44 44 43 42 42 43 43 43 43 43 42 42 42 42 42 42 42 42 42 42 42 42 43 43 45 46 46 46 46 45 45 44 44 41 39 38 38 36 38 39 39 38 38 39 39 39 38 39 39 39 39 38 38 38 37 37
39 37 37 37 37 38 38 38 39 39 39 38 38 39 40 43 44 43 43 43 42 42 41 42 42 43 44 44 44 44 44 43 43 42 42 41 41 41 41 42 42 42 43 43 46 46 46 46 45 44 42 42 40 38 37 36 37 36 36 35 34 34 36 37 36 35 38 38 38 38 39 38 37 37
37 36 36 37 37 38 38 40 40 40 40 38 39 39 41 42 43 43 43 42 42 41 41 41 42 42 43 44 44 44 44 43 44 44 43 43 42 42 41 41 42 43 43 44 45 45 45 44 43 42 39 37 39 36 36 35 35 34 34 33 32 31 29 32 31 32 35 36 37 38 38 38 38 38
37 37 37 36 36 36 36 36 37 38 38 40 41 42 42 42 42 42 42 42 41 41 41 41 42 42 43 44 43 43 43 43 43 44 43 43 43 42 43 43 42 42 41 42 40 40 39 39 39 39 37 36 36 36 35 36 31 28 29 30 29 25 26 30 29 30 33 35 37 37 38 38 37 37
37 36 36 36 36 36 36 36 36 36 37 38 38 39 40 41 41 41 40 40 41 41 41 41 41 41 43 42 42 42 42 42 42 42 43 42 42 42 39 37 36 37 36 37 36 35 35 36 37 37 37 36 35 33 32 29 27 26 27 28 28 29 29 28 29 30 31 32 34 34 35 37 37 37
36 35 35 35 35 35 34 35 35 36 36 35 36 36 37 38 39 39 39 38 38 39 40 38 38 38 40 40 41 41 41 41 41 41 42 42 42 41 40 38 37 36 35 34 33 33 32 33 36 36 35 35 32 29 27 27 28 27 26 27 27 27 28 29 30 30 30 31 32 33 34 34 35 36
34 34 33 34 33 34 34 33 33 33 34 34 34 34 34 35 36 37 37 37 36 34 36 37 37 36 36 37 39 39 39 39 40 39 38 39 40 38 37 37 37 36 36 35 33 33 32 32 32 32 32 32 33 32 30 27 27 28 27 27 26 26 28 30 30 30 29 29 30 30 30 30 31 33
32 32 32 32 33 33 33 33 33 33 33 32 32 33 33 33 33 33 34 34 32 32 32 33 33 34 35 35 35 35 35 36 38 38 37 38 37 38 37 36 37 38 37 36 34 33 31 30 30 30 30 29 28 28 34 31 26 28 27 26 27 27 28 30 29 28 27 27 27 26 26 26 28 29
32 32 32 32 32 32 32 31 32 32 32 32 32 32 32 32 32 32 32 32 32 32 32 31 31 32 32 33 33 33 33 33 34 34 34 34 33 35 36 35 35 37 37 37 37 37 34 29 30 28 27 27 27 26 25 33 33 28 24 26 25 26 27 27 28 28 26 25 25 24 24 22 25 28
32 32 32 32 32 32 31 31 31 31 31 31 31 31 31 31 31 32 31 29 31 30 30 30 31 30 31 31 31 32 32 32 32 32 32 32 34 33 32 31 31 32 34 36 39 39 35 31 29 28 27 27 26 25 24 29 30 33 25 25 25 26 25 25 26 25 26 25 25 23 24 24 24 27
32 32 32 32 32 32 32 31 31 31 31 31 31 31 31 31 31 31 31 31 31 30 30 30 30 30 30 30 30 30 31 31 31 31 31 31 31 31 30 29 29 29 30 32 33 34 35 32 29 30 30 27 26 25 23 23 25 26 33 26 26 25 27 25 24 25 24 25 24 25 26 24 24 28
32 32 32 31 31 31 31 30 30 30 30 31 30 30 30 31 31 31 31 31 30 30 30 30 30 29 29 29 29 29 29 29 30 30 30 30 30 31 30 29 28 27 27 29 31 30 33 33 31 28 26 27 26 25 26 24 22 23 30 32 27 26 25 26 23 24 24 22 24 26 25 24 28 31
31 31 31 32 30 30 29 30 30 29 30 30 30 29 29 30 30 30 30 30 30 29 30 30 30 30 30 29 28 28 29 29 29 28 29 29 30 31 30 29 28 27 28 28 28 26 28 29 30 30 29 28 28 30 29 27 26 26 24 26 32 28 27 28 23 23 19 23 25 24 19 22 19 21
30 31 29 29 29 29 30 29 29 30 30 29 30 31 29 29 30 30 29 30 29 30 30 30 30 29 29 29 28 28 27 27 28 28 28 28 29 30 30 30 29 28 27 26 25 26 26 27 28 29 29 30 29 26 25 23 21 20 21 22 29 33 31 30 25 24 23 24 24 22 19 18 17 16
30 29 28 29 29 28 29 29 29 30 30 29 29 29 30 29 28 32 30 30 30 30 30 30 30 30 30 29 29 29 28 28 28 29 29 29 28 28 29 30 29 29 28 26 26 27 26 31 30 29 28 28 26 24 23 24 22 22 24 27 28 32 33 33 32 30 26 25 23 20 19 19 17 16
28 28 28 28 28 29 29 29 29 28 28 29 29 29 29 30 30 31 30 30 30 30 30 30 30 30 31 30 30 30 29 28 28 28 28 28 28 27 27 29 29 30 29 29 28 28 28 27 28 28 28 27 27 27 24 25 25 25 24 24 24 25 25 32 33 33 33 33 30 28 24 22 20 16
28 28 27 27 27 28 28 28 28 28 28 28 27 29 28 28 29 28 27 28 29 28 28 30 30 30 31 31 30 29 29 29 29 28 27 27 27 26 26 27 28 28 28 27 25 24 26 27 26 27 24 22 26 27 26 26 25 26 26 25 22 21 22 22 25 27 28 29 30 32 34 31 28 26
26 26 27 26 26 26 26 27 27 28 27 27 28 28 27 28 28 28 28 28 28 28 29 29 30 31 31 31 30 29 29 31 29 28 28 27 27 27 27 27 25 25 23 25 23 21 25 24 24 27 27 24 26 27 27 27 27 26 25 20 17 19 19 21 18 18 21 22 28 31 32 32 32 32